"TOA5","MOW","CPU:UNC_MeetingWaters","DataHourly"
"TIMESTAMP","SondeTempC","SpCond","DOSat","DOmg","pH","Turb","BattVolt_Min"
"TS","","","","","","",""
"","Smp","Smp","Smp","Smp","Smp","Smp","Min"
"2008-06-01 09:00:00",23.9799995422,0.127000004053,7.09999990463,-13.6000003815,4.5,90.3000030518,10.4799995422
"2008-06-01 10:00:00",23.9799995422,0.127000004053,7.09999990463,-13.6000003815,4.5,90.3000030518,10.8000001907
"2008-06-01 11:00:00",23.9799995422,0.127000004053,7.09999990463,-13.6000003815,4.5,90.3000030518,10.9399995804
"2008-06-01 13:00:00",-6999.0,0.127000004053,7.38000011444,-29.7999992371,9.39999961853,97.0,13.2399997711
"2008-06-01 14:00:00",-6999.0,0.127000004053,7.38000011444,-29.7999992371,9.39999961853,97.0,12.8900003433
"2008-06-01 15:00:00",-6999.0,0.127000004053,7.38000011444,-29.7999992371,9.39999961853,97.0,15.3400001526
"2008-06-01 16:00:00",24.7299995422,0.0170000009239,7.25,-22.0,6.09999990463,85.0999984741,12.1400003433
"2008-06-01 17:00:00",24.5100002289,0.0170000009239,7.38999986649,-30.1000003815,5.30000019073,89.5,10.6300001144
"2008-06-01 18:00:00",24.5100002289,0.0170000009239,7.38999986649,-30.1000003815,5.30000019073,89.5,10.6899995804
"2008-06-02 11:00:00",21.5799999237,0.0340000018477,7.23999977112,-21.5,3.09999990463,92.5,10.5500001907
"2008-06-02 12:00:00",22.7099990845,0.0230000000447,7.26999998093,-23.2000007629,3.0,99.1999969482,10.9399995804
"2008-06-02 13:00:00",-6999.0,0.0230000000447,7.26999998093,-23.2000007629,3.0,99.1999969482,12.7100000381
"2008-06-02 14:00:00",26.4799995422,0.00499999988824,7.23000001907,-21.3999996185,3.09999990463,136.899993896,11.2399997711
"2008-06-02 15:00:00",-6999.0,0.00499999988824,7.23000001907,-21.3999996185,3.09999990463,136.899993896,15.6700000763
"2008-06-02 16:00:00",-6999.0,0.00499999988824,7.23000001907,-21.3999996185,3.09999990463,136.899993896,14.029999733
"2008-06-03 11:00:00",21.2099990845,0.0179999992251,7.25,-22.0,2.40000009537,90.4000015259,10.9300003052
"2008-06-03 12:00:00",22.5300006866,0.0120000001043,7.28000020981,-24.0,3.0,98.6999969482,14.5799999237
"2008-06-03 13:00:00",-6999.0,0.0120000001043,7.28000020981,-24.0,3.0,98.6999969482,13.0200004578
"2008-06-03 14:00:00",-6999.0,0.0120000001043,7.28000020981,-24.0,3.0,98.6999969482,15.4799995422
"2008-06-03 15:00:00",-6999.0,0.0120000001043,7.28000020981,-24.0,3.0,98.6999969482,13.5100002289
"2008-06-03 16:00:00",-6999.0,0.0120000001043,7.28000020981,-24.0,3.0,98.6999969482,10.6999998093
"2008-06-03 17:00:00",23.5599994659,0.00300000002608,7.30000019073,-25.0,2.5,100.199996948,10.720000267
"2008-06-04 10:00:00",23.5599994659,0.00300000002608,7.30000019073,-25.0,2.5,100.199996948,10.9399995804
"2008-06-04 11:00:00",23.5599994659,0.00300000002608,7.30000019073,-25.0,2.5,100.199996948,10.9600000381
"2008-06-04 12:00:00",23.0699996948,0.0179999992251,7.34999990463,-28.1000003815,3.09999990463,96.3000030518,13.8999996185
"2008-06-04 13:00:00",-6999.0,0.0179999992251,7.34999990463,-28.1000003815,3.09999990463,96.3000030518,14.0399999619
"2008-06-04 14:00:00",-6999.0,0.0179999992251,7.34999990463,-28.1000003815,3.09999990463,96.3000030518,14.3999996185
"2008-06-04 15:00:00",-6999.0,0.0179999992251,7.34999990463,-28.1000003815,3.09999990463,96.3000030518,15.25
"2008-06-04 16:00:00",25.8299999237,0.00499999988824,7.34000015259,-27.7000007629,3.09999990463,95.0,13.720000267
"2008-06-04 17:00:00",25.3899993896,0.00499999988824,7.36000013351,-28.3999996185,2.90000009537,94.0999984741,10.7100000381
"2008-06-05 10:00:00",23.0599994659,0.0250000003725,7.42999982834,-32.7999992371,12.1999998093,89.6999969482,10.5900001526
"2008-06-05 12:00:00",24.4899997711,0.0189999993891,7.48000001907,-35.7000007629,11.3999996185,92.5999984741,13.1499996185
"2008-06-05 13:00:00",-6999.0,0.0189999993891,7.48000001907,-35.7000007629,11.3999996185,92.5999984741,14.6099996567
"2008-06-05 14:00:00",27.25,0.00800000037998,7.26999998093,-23.3999996185,10.1000003815,132.899993896,14.5699996948
"2008-06-05 15:00:00",26.8899993896,0.00499999988824,7.26999998093,-23.3999996185,9.5,112.099998474,14.2600002289
"2008-06-05 16:00:00",26.4099998474,0.00400000018999,7.28999996185,-24.6000003815,10.1000003815,97.8000030518,15.3100004196
"2008-06-06 11:00:00",24.3400001526,0.0230000000447,7.30999994278,-25.7999992371,1719.0,79.5999984741,10.6099996567
"2008-06-06 12:00:00",25.2999992371,0.0140000004321,7.26000022888,-23.0,7.30000019073,96.0,13.0200004578
"2008-06-06 13:00:00",-6999.0,0.0140000004321,7.26000022888,-23.0,7.30000019073,96.0,15.1000003815
"2008-06-06 14:00:00",-6999.0,0.0140000004321,7.26000022888,-23.0,7.30000019073,96.0,13.8199996948
"2008-06-06 15:00:00",27.9400005341,0.00300000002608,7.36999988556,-29.2000007629,8.30000019073,105.0,13.1499996185
"2008-06-06 16:00:00",-6999.0,0.00300000002608,7.36999988556,-29.2000007629,8.30000019073,105.0,14.029999733
"2008-06-06 17:00:00",-6999.0,0.00300000002608,7.36999988556,-29.2000007629,8.30000019073,105.0,10.7299995422
"2008-06-07 10:00:00",24.3099994659,0.0109999999404,7.28999996185,-24.7999992371,1719.0,88.4000015259,9.94999980927
"2008-06-07 11:00:00",24.7600002289,0.00999999977648,7.36000013351,-28.5,6.0,97.0,10.6199998856
"2008-06-07 13:00:00",28.5200004578,0.00499999988824,7.23999977112,-22.1000003815,4.59999990463,110.5,14.6800003052
"2008-06-07 14:00:00",29.1299991608,0.00200000009499,7.30000019073,-25.6000003815,1784.0,123.300003052,14.9200000763
"2008-06-07 15:00:00",28.1700000763,0.00200000009499,7.42999982834,-32.7999992371,3.79999995232,107.5,13.6199998856
"2008-06-07 16:00:00",27.7700004578,0.0010000000475,7.38999986649,-30.3999996185,4.19999980927,93.0999984741,12.779999733
"2008-06-07 17:00:00",27.7700004578,0.0010000000475,7.38999986649,-30.3999996185,4.19999980927,93.0999984741,10.7399997711
"2008-06-08 09:00:00",27.7700004578,0.0010000000475,7.38999986649,-30.3999996185,4.19999980927,93.0999984741,10.6499996185
"2008-06-08 11:00:00",23.6100006104,0.0240000002086,7.98999977112,-65.4000015259,4.90000009537,94.6999969482,10.6199998856
"2008-06-08 12:00:00",24.9200000763,0.0140000004321,7.38000011444,-29.7999992371,1727.0,95.3000030518,12.9300003052
"2008-06-08 13:00:00",-6999.0,0.0140000004321,7.38000011444,-29.7999992371,1727.0,95.3000030518,13.970000267
"2008-06-08 14:00:00",-6999.0,0.0140000004321,7.38000011444,-29.7999992371,1727.0,95.3000030518,12.7600002289
"2008-06-08 15:00:00",-6999.0,0.0140000004321,7.38000011444,-29.7999992371,1727.0,95.3000030518,14.0500001907
"2008-06-08 16:00:00",-6999.0,0.0140000004321,7.38000011444,-29.7999992371,1727.0,95.3000030518,13.0600004196
"2008-06-08 18:00:00",-6999.0,0.0140000004321,7.38000011444,-29.7999992371,1727.0,95.3000030518,10.6499996185
"2008-06-09 10:00:00",23.6200008392,0.0379999987781,7.94999980927,-63.0,4.0,91.4000015259,10.3500003815
"2008-06-09 11:00:00",24.7800006866,0.0340000018477,7.48000001907,-35.9000015259,3.29999995232,93.0,10.470000267
"2008-06-09 12:00:00",26.8700008392,0.0109999999404,7.05999994278,-10.8999996185,1753.0,95.3000030518,10.6400003433
"2008-06-09 13:00:00",28.5499992371,0.00700000021607,7.11999988556,-14.8000001907,2.79999995232,134.699996948,14.6999998093
"2008-06-09 14:00:00",29.1000003815,0.00499999988824,7.11000013351,-14.3999996185,1783.0,145.600006104,14.2700004578
"2008-06-09 15:00:00",27.6900005341,0.00600000005215,7.13999986649,-15.8999996185,2.59999990463,124.400001526,10.8800001144
"2008-06-09 16:00:00",27.6900005341,0.00600000005215,7.13999986649,-15.8999996185,2.59999990463,124.400001526,10.7399997711
"2008-06-09 17:00:00",26.5699996948,0.0109999999404,7.46000003815,-34.4000015259,1749.0,94.5999984741,10.8199996948
"2008-06-09 18:00:00",25.7999992371,0.0120000001043,7.48000001907,-35.7000007629,3.29999995232,94.5999984741,10.6400003433
"2008-06-10 09:00:00",23.0300006866,0.0250000003725,7.84000015259,-56.2999992371,3.40000009537,87.0999984741,10.6199998856
"2008-06-10 11:00:00",24.1200008392,0.01600000076,7.48999977112,-36.0999984741,4.09999990463,99.8000030518,9.72000026703
"2008-06-10 12:00:00",25.7099990845,0.00999999977648,7.32999992371,-26.7000007629,1738.0,97.1999969482,13.3900003433
"2008-06-10 13:00:00",-6999.0,0.00999999977648,7.32999992371,-26.7000007629,1738.0,97.1999969482,14.5100002289
"2008-06-10 14:00:00",28.9300003052,0.00300000002608,7.07999992371,-12.3999996185,1781.0,128.399993896,14.9200000763
"2008-06-10 15:00:00",-6999.0,0.00300000002608,7.07999992371,-12.3999996185,1781.0,128.399993896,14.0500001907
"2008-06-10 16:00:00",27.6000003815,0.00300000002608,7.05999994278,-11.1999998093,2.90000009537,98.8000030518,13.8000001907
"2008-06-11 09:00:00",27.3199996948,0.00300000002608,7.09999990463,-13.6000003815,3.0,95.3000030518,10.5799999237
"2008-06-11 10:00:00",27.3199996948,0.00300000002608,7.09999990463,-13.6000003815,3.0,95.3000030518,10.5799999237
"2008-06-11 11:00:00",24.7000007629,0.00499999988824,6.94999980927,-4.90000009537,1724.0,97.0999984741,12.8199996948
"2008-06-11 12:00:00",24.7000007629,0.00499999988824,6.94999980927,-4.90000009537,1724.0,97.0999984741,10.7899999619
"2008-06-11 13:00:00",27.0400009155,0.00300000002608,7.01000022888,-8.60000038147,3.0,140.100006104,13.720000267
"2008-06-11 14:00:00",-6999.0,0.00300000002608,7.01000022888,-8.60000038147,3.0,140.100006104,14.8299999237
"2008-06-11 15:00:00",27.8999996185,0.0010000000475,7.05999994278,-11.1000003815,1767.0,122.5,13.529999733
"2008-06-11 16:00:00",27.8999996185,0.0010000000475,7.05999994278,-11.1000003815,1767.0,122.5,13.970000267
"2008-06-11 17:00:00",26.3500003815,0.00200000009499,6.94999980927,-5.0,2.5,98.5999984741,10.8000001907
"2008-06-12 10:00:00",23.1599998474,0.0189999993891,6.84000015259,1.29999995232,1704.0,98.6999969482,10.5699996948
"2008-06-12 12:00:00",24.4400005341,0.00899999961257,6.90999984741,-2.59999990463,5.09999990463,100.099998474,13.8999996185
"2008-06-12 13:00:00",25.1499996185,0.00800000037998,6.96000003815,-5.5,1730.0,104.400001526,14.0699996948
"2008-06-12 14:00:00",25.1399993896,0.00700000021607,6.88000011444,-0.899999976158,3.59999990463,109.300003052,13.8299999237
"2008-06-12 15:00:00",25.0100002289,0.00499999988824,6.94000005722,-4.19999980927,1728.0,104.400001526,13.9099998474
"2008-06-12 16:00:00",25.2900009155,0.00400000018999,6.92000007629,-2.79999995232,16.7999992371,105.199996948,13.8599996567
"2008-06-12 17:00:00",24.7000007629,0.00499999988824,6.90999984741,-2.59999990463,39.5999984741,100.199996948,13.1700000763
"2008-06-13 08:00:00",21.1700000763,0.0240000002086,7.01999998093,-9.10000038147,7.80000019073,91.5,10.4799995422
"2008-06-13 09:00:00",21.5699996948,0.0250000003725,6.94999980927,-4.59999990463,1683.0,97.0999984741,10.4799995422
"2008-06-13 10:00:00",22.0300006866,0.0170000009239,6.92999982834,-3.5,5.30000019073,99.3000030518,10.6599998474
"2008-06-13 11:00:00",22.0300006866,0.0170000009239,6.92999982834,-3.5,5.30000019073,99.3000030518,13.8400001526
"2008-06-13 12:00:00",23.7399997711,0.00499999988824,6.73999977112,7.09999990463,1711.0,106.199996948,12.779999733
"2008-06-13 13:00:00",-6999.0,0.00499999988824,6.73999977112,7.09999990463,1711.0,106.199996948,14.8299999237
"2008-06-13 14:00:00",-6999.0,0.00499999988824,6.73999977112,7.09999990463,1711.0,106.199996948,14.9499998093
"2008-06-13 15:00:00",-6999.0,0.00499999988824,6.73999977112,7.09999990463,1711.0,106.199996948,14.4600000381
"2008-06-13 16:00:00",26.3099994659,0.0,6.88999986649,-1.0,5.90000009537,101.0,13.720000267
"2008-06-13 17:00:00",26.3099994659,0.0,6.88999986649,-1.0,5.90000009537,101.0,10.8299999237
"2008-06-13 18:00:00",24.8199996948,0.0,6.82999992371,2.09999990463,1726.0,91.5,10.6700000763
"2008-06-14 09:00:00",22.1499996185,0.01600000076,7.21999979019,-20.5,12.6999998093,99.3000030518,10.5200004578
"2008-06-14 10:00:00",23.1499996185,0.0130000002682,7.05999994278,-11.3999996185,1704.0,99.5,14.0200004578
"2008-06-14 11:00:00",26.6399993896,0.00499999988824,6.86999988556,-0.300000011921,9.10000038147,107.0,13.4600000381
"2008-06-14 12:00:00",-6999.0,0.00499999988824,6.86999988556,-0.300000011921,9.10000038147,107.0,12.8599996567
"2008-06-14 13:00:00",-6999.0,0.00499999988824,6.86999988556,-0.300000011921,9.10000038147,107.0,13.3000001907
"2008-06-14 14:00:00",-6999.0,0.00499999988824,6.86999988556,-0.300000011921,9.10000038147,107.0,13.7700004578
"2008-06-14 15:00:00",27.8700008392,0.0010000000475,6.88999986649,-1.10000002384,13.6000003815,116.5,12.5500001907
"2008-06-14 16:00:00",26.6900005341,0.0010000000475,6.84000015259,1.5,1751.0,101.099998474,14.0100002289
"2008-06-14 17:00:00",26.25,0.0010000000475,6.92999982834,-3.5,24.0,99.6999969482,12.8199996948
"2008-06-14 18:00:00",26.2099990845,0.0010000000475,6.88000011444,-0.800000011921,1744.0,94.5,10.5699996948
"2008-06-15 08:00:00",21.2999992371,0.0109999999404,8.23999977112,-79.0999984741,35.4000015259,78.4000015259,10.4300003052
"2008-06-15 09:00:00",21.9300003052,0.0109999999404,8.22999954224,-78.9000015259,1687.0,83.8000030518,12.8000001907
"2008-06-15 10:00:00",22.2199993134,0.0109999999404,8.17000007629,-75.1999969482,26.0,85.6999969482,13.720000267
"2008-06-15 11:00:00",22.8299999237,0.0109999999404,7.59999990463,-42.4000015259,1699.0,96.5999984741,14.4399995804
"2008-06-15 12:00:00",23.4599990845,0.00600000005215,7.53999996185,-39.0999984741,13.6000003815,89.4000015259,13.8000001907
"2008-06-15 13:00:00",23.9799995422,0.00400000018999,7.48000001907,-35.7999992371,1714.0,97.4000015259,12.8500003815
"2008-06-15 14:00:00",-6999.0,0.00400000018999,7.48000001907,-35.7999992371,1714.0,97.4000015259,12.6999998093
"2008-06-15 15:00:00",-6999.0,0.00400000018999,7.48000001907,-35.7999992371,1714.0,97.4000015259,15.3400001526
"2008-06-15 16:00:00",24.6000003815,0.00200000009499,7.09000015259,-12.8999996185,9.19999980927,94.4000015259,13.7700004578
"2008-06-15 17:00:00",24.1599998474,0.00200000009499,7.13999986649,-15.8000001907,1717.0,89.8000030518,10.6400003433
"2008-06-15 18:00:00",24.1599998474,0.00200000009499,7.13999986649,-15.8000001907,1717.0,89.8000030518,10.6700000763
"2008-06-16 10:00:00",22.4799995422,0.0010000000475,7.21000003815,-19.8999996185,1695.0,92.5999984741,13.3800001144
"2008-06-16 11:00:00",-6999.0,0.0010000000475,7.21000003815,-19.8999996185,1695.0,92.5999984741,12.0500001907
"2008-06-16 12:00:00",-6999.0,0.0010000000475,7.21000003815,-19.8999996185,1695.0,92.5999984741,15.4099998474
"2008-06-16 13:00:00",-6999.0,0.0010000000475,7.21000003815,-19.8999996185,1695.0,92.5999984741,13.8999996185
"2008-06-16 14:00:00",-6999.0,0.0010000000475,7.21000003815,-19.8999996185,1695.0,92.5999984741,15.220000267
"2008-06-16 15:00:00",-6999.0,0.0010000000475,7.21000003815,-19.8999996185,1695.0,92.5999984741,13.2399997711
"2008-06-16 16:00:00",27.2000007629,0.0,6.65000009537,12.8000001907,9.30000019073,92.3000030518,13.4099998474
"2008-06-16 17:00:00",26.0799999237,0.0,6.67000007629,11.8000001907,9.69999980927,84.6999969482,11.2700004578
"2008-06-17 08:00:00",20.7800006866,0.00400000018999,8.19999980927,-76.8000030518,1672.0,73.3000030518,10.4499998093
"2008-06-17 09:00:00",21.6100006104,0.00400000018999,8.10999965668,-71.9000015259,17.3999996185,79.8000030518,10.470000267
"2008-06-17 10:00:00",22.2299995422,0.00400000018999,7.96999979019,-63.7999992371,1691.0,87.1999969482,13.5500001907
"2008-06-17 11:00:00",-6999.0,0.00400000018999,7.96999979019,-63.7999992371,1691.0,87.1999969482,13.75
"2008-06-17 12:00:00",-6999.0,0.00400000018999,7.96999979019,-63.7999992371,1691.0,87.1999969482,12.2299995422
"2008-06-17 13:00:00",-6999.0,0.00400000018999,7.96999979019,-63.7999992371,1691.0,87.1999969482,14.970000267
"2008-06-17 14:00:00",-6999.0,0.00400000018999,7.96999979019,-63.7999992371,1691.0,87.1999969482,12.5
"2008-06-17 15:00:00",-6999.0,0.00400000018999,7.96999979019,-63.7999992371,1691.0,87.1999969482,12.5399999619
"2008-06-17 16:00:00",28.0200004578,0.0,5.78999996185,63.7000007629,8.39999961853,83.0999984741,13.8199996948
"2008-06-17 17:00:00",27.3299999237,0.0,5.88000011444,57.9000015259,1760.0,74.3000030518,10.6300001144
"2008-06-18 10:00:00",19.2999992371,0.0,6.51000022888,20.3999996185,16.7000007629,82.3000030518,13.4200000763
"2008-06-18 11:00:00",-6999.0,0.0,6.51000022888,20.3999996185,16.7000007629,82.3000030518,12.4600000381
"2008-06-18 12:00:00",-6999.0,0.0,6.51000022888,20.3999996185,16.7000007629,82.3000030518,14.1099996567
"2008-06-18 13:00:00",-6999.0,0.0,6.51000022888,20.3999996185,16.7000007629,82.3000030518,13.2600002289
"2008-06-18 14:00:00",-6999.0,0.0,6.51000022888,20.3999996185,16.7000007629,82.3000030518,13.6599998474
"2008-06-18 15:00:00",-6999.0,0.0,6.51000022888,20.3999996185,16.7000007629,82.3000030518,13.0799999237
"2008-06-18 16:00:00",25.7000007629,0.0,5.61000013351,73.8000030518,1738.0,79.1999969482,13.5699996948
"2008-06-18 17:00:00",24.9899997711,0.0,5.55999994278,76.3000030518,19.0,74.0999984741,11.8199996948
"2008-06-19 08:00:00",16.4300003052,0.0,6.86000013351,0.10000000149,1615.0,90.5,10.5
"2008-06-19 09:00:00",17.6700000763,0.0,6.80000019073,3.79999995232,11.8999996185,93.6999969482,10.6400003433
"2008-06-19 10:00:00",19.2000007629,0.0,6.59000015259,15.8999996185,1652.0,95.6999969482,13.029999733
"2008-06-19 11:00:00",-6999.0,0.0,6.59000015259,15.8999996185,1652.0,95.6999969482,14.6800003052
"2008-06-19 12:00:00",-6999.0,0.0,6.59000015259,15.8999996185,1652.0,95.6999969482,12.9499998093
"2008-06-19 13:00:00",-6999.0,0.0,6.59000015259,15.8999996185,1652.0,95.6999969482,13.1199998856
"2008-06-19 14:00:00",26.6200008392,0.0,5.92000007629,55.7999992371,15.6000003815,124.199996948,13.529999733
"2008-06-19 15:00:00",24.6800003052,0.0,6.07000017166,46.4000015259,1724.0,127.699996948,12.8500003815
"2008-06-19 16:00:00",-6999.0,0.0,6.07000017166,46.4000015259,1724.0,127.699996948,13.9899997711
"2008-06-19 17:00:00",24.3099994659,0.0,5.73999977112,65.5999984741,1719.0,95.1999969482,12.3199996948
"2008-06-20 10:00:00",20.5499992371,0.0,6.61000013351,14.8000001907,8.89999961853,96.9000015259,12.7100000381
"2008-06-20 11:00:00",-6999.0,0.0,6.61000013351,14.8000001907,8.89999961853,96.9000015259,13.1700000763
"2008-06-20 12:00:00",-6999.0,0.0,6.61000013351,14.8000001907,8.89999961853,96.9000015259,15.4099998474
"2008-06-20 13:00:00",-6999.0,0.0,6.61000013351,14.8000001907,8.89999961853,96.9000015259,13.2299995422
"2008-06-20 14:00:00",-6999.0,0.0,6.61000013351,14.8000001907,8.89999961853,96.9000015259,14.2899999619
"2008-06-20 15:00:00",21.8400001526,0.0,8.18999958038,-76.5999984741,1686.0,102.300003052,13.9899997711
"2008-06-20 16:00:00",21.6299991608,0.0,7.86999988556,-57.5999984741,39.0999984741,101.599998474,13.7700004578
"2008-06-20 17:00:00",22.8600006104,0.0,7.98000001907,-64.5999984741,1700.0,97.0999984741,12.5699996948
"2008-06-20 18:00:00",22.7099990845,0.0,7.17999982834,-17.7999992371,23.1000003815,97.0999984741,10.779999733
"2008-06-21 09:00:00",20.0200004578,0.0,7.34999990463,-27.6000003815,1662.0,97.9000015259,11.6999998093
"2008-06-21 10:00:00",20.8799991608,0.0,7.17999982834,-17.8999996185,18.2000007629,112.800003052,13.25
"2008-06-21 11:00:00",-6999.0,0.0,7.17999982834,-17.8999996185,18.2000007629,112.800003052,13.7600002289
"2008-06-21 12:00:00",-6999.0,0.0,7.17999982834,-17.8999996185,18.2000007629,112.800003052,14.6199998856
"2008-06-21 13:00:00",-6999.0,0.0,7.17999982834,-17.8999996185,18.2000007629,112.800003052,13.0100002289
"2008-06-21 14:00:00",24.1800003052,0.0,6.82999992371,2.20000004768,1717.0,126.199996948,14.220000267
"2008-06-21 15:00:00",-6999.0,0.0,6.82999992371,2.20000004768,1717.0,126.199996948,15.3400001526
"2008-06-21 16:00:00",24.4400005341,0.0,6.36000013351,29.7999992371,14.8999996185,104.900001526,11.9899997711
"2008-06-21 17:00:00",23.9099998474,0.0,6.65999984741,12.1999998093,1714.0,107.199996948,11.3999996185
"2008-06-22 09:00:00",23.9099998474,0.0,6.65999984741,12.1999998093,1714.0,107.199996948,11.7600002289
"2008-06-22 10:00:00",20.7800006866,0.00200000009499,7.03999996185,-10.0,20.1000003815,97.5999984741,13.4600000381
"2008-06-22 11:00:00",21.5200004578,0.00200000009499,7.0,-7.5,18.3999996185,95.0,14.0799999237
"2008-06-22 12:00:00",-6999.0,0.00200000009499,7.0,-7.5,18.3999996185,95.0,14.5900001526
"2008-06-22 13:00:00",-6999.0,0.00200000009499,7.0,-7.5,18.3999996185,95.0,12.9799995422
"2008-06-22 14:00:00",-6999.0,0.00200000009499,7.0,-7.5,18.3999996185,95.0,13.5699996948
"2008-06-22 15:00:00",23.7900009155,0.0,6.38999986649,27.6000003815,14.1999998093,104.199996948,13.8999996185
"2008-06-22 16:00:00",23.75,0.0,6.44000005722,24.6000003815,13.0,96.8000030518,13.9600000381
"2008-06-22 17:00:00",22.6200008392,0.0,6.28000020981,33.9000015259,1696.0,93.5999984741,12.6899995804
"2008-06-22 18:00:00",22.6399993896,0.0,6.53000020981,19.3999996185,11.6000003815,99.0999984741,11.1300001144
"2008-06-23 09:00:00",20.9200000763,0.00200000009499,7.32000017166,-26.0,16.7999992371,93.0999984741,11.1899995804
"2008-06-23 10:00:00",21.4300003052,0.00200000009499,7.19000005722,-18.6000003815,14.8000001907,95.1999969482,13.0500001907
"2008-06-23 11:00:00",-6999.0,0.00200000009499,7.19000005722,-18.6000003815,14.8000001907,95.1999969482,14.6899995804
"2008-06-23 12:00:00",-6999.0,0.00200000009499,7.19000005722,-18.6000003815,14.8000001907,95.1999969482,12.8000001907
"2008-06-23 13:00:00",-6999.0,0.00200000009499,7.19000005722,-18.6000003815,14.8000001907,95.1999969482,13.2399997711
"2008-06-23 14:00:00",-6999.0,0.00200000009499,7.19000005722,-18.6000003815,14.8000001907,95.1999969482,14.3800001144
"2008-06-23 15:00:00",-6999.0,0.00200000009499,7.19000005722,-18.6000003815,14.8000001907,95.1999969482,12.7700004578
"2008-06-23 16:00:00",24.8400001526,0.0,6.15999984741,41.0999984741,25.5,97.5999984741,13.5600004196
"2008-06-23 17:00:00",24.0100002289,0.0,6.28000020981,34.0999984741,38.0999984741,98.5,12.2100000381
"2008-06-24 10:00:00",20.2700004578,0.0010000000475,6.92999982834,-3.5,1666.0,97.5,12.3400001526
"2008-06-24 11:00:00",-6999.0,0.0010000000475,6.92999982834,-3.5,1666.0,97.5,13.8500003815
"2008-06-24 12:00:00",-6999.0,0.0010000000475,6.92999982834,-3.5,1666.0,97.5,14.8299999237
"2008-06-24 13:00:00",-6999.0,0.0010000000475,6.92999982834,-3.5,1666.0,97.5,12.9300003052
"2008-06-24 14:00:00",-6999.0,0.0010000000475,6.92999982834,-3.5,1666.0,97.5,12.6400003433
"2008-06-24 15:00:00",-6999.0,0.0010000000475,6.92999982834,-3.5,1666.0,97.5,13.2600002289
"2008-06-24 16:00:00",25.3500003815,0.0,5.67999982834,69.4000015259,110.800003052,96.1999969482,13.6199998856
"2008-06-24 17:00:00",24.4200000763,0.0,5.94000005722,54.2000007629,159.300003052,96.6999969482,11.8500003815
"2008-06-25 10:00:00",20.9300003052,0.0,6.71999979019,8.19999980927,1674.0,97.5999984741,12.25
"2008-06-25 11:00:00",23.7900009155,0.0,6.09000015259,45.0,16.2000007629,97.6999969482,14.0900001526
"2008-06-25 12:00:00",25.0,0.0,5.88000011444,57.4000015259,1728.0,100.400001526,13.4399995804
"2008-06-25 13:00:00",-6999.0,0.0,5.88000011444,57.4000015259,1728.0,100.400001526,14.029999733
"2008-06-25 14:00:00",25.1700000763,0.0,6.0,50.7999992371,1730.0,99.0,12.2700004578
"2008-06-25 15:00:00",25.5699996948,0.0,5.94000005722,54.2999992371,21.1000003815,99.0,13.8500003815
"2008-06-25 16:00:00",25.0799999237,0.0,6.01999998093,49.2000007629,35.0,85.5,13.5100002289
"2008-06-25 17:00:00",25.0599994659,0.0,5.88000011444,57.9000015259,1729.0,98.0999984741,12.4300003052
"2008-06-25 18:00:00",-6999.0,0.0,5.88000011444,57.9000015259,1729.0,98.0999984741,11.6499996185
"2008-06-26 10:00:00",22.7600002289,0.0,6.5,21.2999992371,1698.0,98.4000015259,12.5600004196
"2008-06-26 11:00:00",-6999.0,0.0,6.5,21.2999992371,1698.0,98.4000015259,14.3500003815
"2008-06-26 12:00:00",25.3400001526,0.0,6.01999998093,49.5,27.7000007629,100.400001526,13.7299995422
"2008-06-26 13:00:00",26.3199996948,0.0,6.01999998093,49.4000015259,25.6000003815,99.5999984741,12.6199998856